DW0156 Weather Reports


Display with metric or nautical units.
time (UTC)temp
F
wind
direction
speed
MPH
gust
MPH
rain 1hr
in
rain 24hr
in
rain mn
in
humidity
%
barometer
mb
20260507210711 58 263 1.0 4.0 0.00 0.00 0.00 78 1029.5
20260507210218 58 263 1.0 5.0 0.00 0.00 0.00 78 1029.5
20260507205718 58 263 1.0 5.0 0.00 0.00 0.00 78 1029.5
20260507205158 57 263 1.0 5.0 0.00 0.00 0.00 78 1029.5
20260507204707 57 263 1.0 5.0 0.00 0.00 0.00 78 1029.5
20260507204210 57 263 1.0 4.0 0.00 0.00 0.00 78 1029.5
20260507203715 57 263 1.0 4.0 0.00 0.00 0.00 78 1029.5
20260507203207 57 263 0.0 4.0 0.00 0.00 0.00 78 1029.5
20260507202705 57 263 0.0 4.0 0.00 0.00 0.00 78 1029.5
20260507202148 57 263 0.0 4.0 0.00 0.00 0.00 78 1029.5
20260507201629 57 263 0.0 1.0 0.00 0.00 0.00 78 1029.5
20260507201120 57 263 0.0 1.0 0.00 0.00 0.00 78 1029.5
20260507195948 57 263 0.0 0.0 0.00 0.00 0.00 78 1029.5
20260507195451 57 263 0.0 0.0 0.00 0.00 0.00 78 1029.6
20260507194958 57 263 0.0 3.0 0.00 0.00 0.00 78 1029.6
20260507193829 57 263 0.0 2.0 0.00 0.00 0.00 77 1029.6
20260507193339 57 263 0.0 1.0 0.00 0.00 0.00 77 1029.6
20260507192840 57 263 0.0 0.0 0.00 0.00 0.00 77 1029.5
20260507192346 57 263 0.0 0.0 0.00 0.00 0.00 77 1029.5
20260507191854 57 263 0.0 0.0 0.00 0.00 0.00 77 1029.5
20260507191355 57 263 1.0 4.0 0.00 0.00 0.00 77 1029.5
20260507190855 57 263 1.0 9.0 0.00 0.00 0.00 77 1029.5
20260507185730 57 263 2.0 9.0 0.00 0.00 0.00 76 1029.3
20260507185221 57 263 1.0 5.0 0.00 0.00 0.00 77 1029.3
20260507184711 57 263 2.0 5.0 0.00 0.00 0.00 77 1029.3
20260507184219 57 263 1.0 5.0 0.00 0.00 0.00 77 1029.3
20260507183055 57 263 0.0 0.0 0.00 0.00 0.00 78 1029.3
20260507182537 57 263 0.0 0.0 0.00 0.00 0.00 78 1029.5
20260507182020 57 263 0.0 0.0 0.00 0.00 0.00 78 1029.5
20260507181504 57 263 0.0 3.0 0.00 0.00 0.00 79 1029.5
20260507181007 57 263 1.0 5.0 0.00 0.00 0.00 79 1029.4
20260507175343 57 263 2.0 6.0 0.00 0.00 0.00 80 1029.5
20260507174221 57 263 2.0 5.0 0.00 0.00 0.00 81 1029.6
20260507173706 57 263 2.0 5.0 0.00 0.00 0.00 81 1029.6
20260507173155 57 263 1.0 5.0 0.00 0.00 0.00 81 1029.6
20260507172648 57 263 1.0 5.0 0.00 0.00 0.00 81 1029.5
20260507172143 57 263 2.0 5.0 0.00 0.00 0.00 81 1029.5
20260507171650 57 263 2.0 9.0 0.00 0.00 0.00 81 1029.5
20260507171136 57 263 2.0 9.0 0.00 0.00 0.00 81 1029.5
20260507170004 57 263 1.0 6.0 0.00 0.00 0.00 81 1029.5
20260507165502 57 263 2.0 6.0 0.00 0.00 0.00 81 1029.7
20260507164951 57 263 2.0 6.0 0.00 0.00 0.00 80 1029.7
20260507164433 57 263 1.0 6.0 0.00 0.00 0.00 80 1029.7
20260507163245 57 263 0.0 0.0 0.00 0.00 0.00 79 1029.8
20260507162736 57 263 0.0 2.0 0.00 0.00 0.00 79 1029.8
20260507162222 57 263 1.0 9.0 0.00 0.00 0.00 79 1029.8
20260507161721 57 263 2.0 9.0 0.00 0.00 0.00 79 1029.8
20260507160544 57 263 3.0 6.0 0.00 0.00 0.00 77 1030.0
20260507160051 57 263 3.0 6.0 0.00 0.00 0.00 76 1030.0
20260507155540 58 263 2.0 10.0 0.00 0.00 0.00 75 1030.0
20260507154407 58 263 4.0 12.0 0.00 0.00 0.00 74 1030.1
20260507153847 58 263 5.0 12.0 0.00 0.00 0.00 74 1030.1
20260507153350 58 263 4.0 12.0 0.00 0.00 0.00 73 1030.1
20260507152834 58 263 3.0 10.0 0.00 0.00 0.00 72 1029.9
20260507152327 58 263 3.0 9.0 0.00 0.00 0.00 72 1029.9
20260507151822 58 263 3.0 9.0 0.00 0.00 0.00 71 1029.9
20260507151308 58 263 3.0 9.0 0.00 0.00 0.00 71 1030.1
20260507150757 58 263 4.0 13.0 0.00 0.00 0.00 71 1030.1
20260507150242 58 263 4.0 13.0 0.00 0.00 0.00 71 1030.1
20260507145747 58 263 5.0 13.0 0.00 0.00 0.00 71 1030.1
20260507145240 58 263 5.0 13.0 0.00 0.00 0.00 71 1030.1
20260507144723 58 263 4.0 12.0 0.00 0.00 0.00 70 1030.1
20260507144217 58 263 3.0 8.0 0.00 0.00 0.00 70 1030.1
20260507143710 58 263 3.0 8.0 0.00 0.00 0.00 70 1030.1
20260507143207 58 263 3.0 8.0 0.00 0.00 0.00 70 1030.1
20260507142713 58 263 2.0 8.0 0.00 0.00 0.00 70 1030.1
20260507142216 57 263 1.0 4.0 0.00 0.00 0.00 70 1030.1
20260507141702 57 263 0.0 4.0 0.00 0.00 0.00 70 1030.1
20260507140633 57 263 1.0 5.0 0.00 0.00 0.00 70 1030.1
20260507140114 57 263 2.0 5.0 0.00 0.00 0.00 70 1030.1
20260507135610 57 263 1.0 5.0 0.00 0.00 0.00 70 1030.1
20260507133944 57 263 0.0 5.0 0.00 0.00 0.00 70 1030.2
20260507133431 57 263 1.0 5.0 0.00 0.00 0.00 71 1030.2
20260507132932 57 263 1.0 5.0 0.00 0.00 0.00 71 1030.2
20260507132438 57 263 0.0 2.0 0.00 0.00 0.00 71 1030.3
20260507131918 57 263 1.0 0.0 0.00 0.00 0.00 72 1030.3
20260507131359 57 263 1.0 5.0 0.00 0.00 0.00 72 1030.2
20260507130854 57 263 2.0 5.0 0.00 0.00 0.00 72 1030.2
20260507130334 57 263 1.0 5.0 0.00 0.00 0.00 72 1030.2
20260507125204 57 263 1.0 4.0 0.00 0.00 0.00 72 1030.2
20260507124650 57 263 1.0 8.0 0.00 0.00 0.00 73 1030.2
20260507124137 57 263 2.0 8.0 0.00 0.00 0.00 73 1030.6
20260507123000 57 263 2.0 8.0 0.00 0.00 0.00 73 1030.6
20260507122450 57 263 1.0 6.0 0.00 0.00 0.00 73 1030.6
20260507121937 57 263 2.0 6.0 0.00 0.00 0.00 72 1030.6
20260507121435 56 263 2.0 6.0 0.00 0.00 0.00 72 1030.6
20260507120919 56 263 1.0 6.0 0.00 0.00 0.00 72 1030.6
20260507120406 56 263 1.0 6.0 0.00 0.00 0.00 72 1030.6
20260507115849 56 263 2.0 6.0 0.00 0.00 0.00 71 1030.6
20260507115337 56 263 2.0 6.0 0.00 0.00 0.00 71 1030.6
20260507114845 56 263 2.0 6.0 0.00 0.00 0.00 71 1030.6
20260507114334 56 263 2.0 6.0 0.00 0.00 0.00 70 1030.6
20260507113226 56 263 2.0 5.0 0.00 0.00 0.00 70 1030.6
20260507112712 57 263 2.0 5.0 0.00 0.00 0.00 70 1030.6
20260507112202 57 263 0.0 5.0 0.00 0.00 0.00 69 1030.6
20260507111647 57 263 0.0 0.0 0.00 0.00 0.00 69 1030.6
20260507111150 57 263 0.0 4.0 0.00 0.00 0.00 68 1030.6
20260507110643 57 263 1.0 5.0 0.00 0.00 0.00 67 1030.6
20260507110144 57 263 1.0 5.0 0.00 0.00 0.00 67 1030.6
20260507105636 57 263 1.0 5.0 0.00 0.00 0.00 66 1030.5
20260507105128 57 263 1.0 5.0 0.00 0.00 0.00 65 1030.5
20260507104611 57 263 1.0 3.0 0.00 0.00 0.00 65 1030.5
20260507104109 57 263 1.0 3.0 0.00 0.00 0.00 65 1030.6
20260507103614 57 263 1.0 3.0 0.00 0.00 0.00 65 1030.6
20260507103100 57 263 0.0 3.0 0.00 0.00 0.00 65 1030.6
20260507101941 57 263 1.0 4.0 0.00 0.00 0.00 64 1030.6
20260507100833 57 263 2.0 11.0 0.00 0.00 0.00 64 1030.5
20260507100339 57 263 3.0 11.0 0.00 0.00 0.00 64 1030.5
20260507095820 57 263 3.0 11.0 0.00 0.00 0.00 64 1030.6
20260507094641 57 263 4.0 9.0 0.00 0.00 0.00 64 1030.6
20260507093525 57 263 2.0 5.0 0.00 0.00 0.00 64 1030.3
20260507093014 57 263 1.0 4.0 0.00 0.00 0.00 64 1030.3
20260507091902 57 263 2.0 6.0 0.00 0.00 0.00 64 1030.2
20260507091403 57 263 1.0 6.0 0.00 0.00 0.00 64 1030.2
20260507090901 57 263 2.0 6.0 0.00 0.00 0.00 63 1030.2
20260507085901 57 263 2.0 5.0 0.00 0.00 0.00 63 1030.1
20260507085342 57 263 2.0 5.0 0.00 0.00 0.00 63 1030.1
20260507084836 57 263 2.0 6.0 0.00 0.00 0.00 63 1030.1
20260507084320 58 263 2.0 6.0 0.00 0.00 0.00 63 1030.0
20260507083811 58 263 2.0 9.0 0.00 0.00 0.00 63 1030.0
20260507083251 58 263 2.0 9.0 0.00 0.00 0.00 63 1030.0
20260507082751 58 263 3.0 9.0 0.00 0.00 0.00 63 1029.9
20260507082255 58 263 3.0 7.0 0.00 0.00 0.00 63 1029.9
20260507081750 58 263 3.0 7.0 0.00 0.00 0.00 62 1029.9
20260507081257 58 263 3.0 7.0 0.00 0.00 0.00 62 1029.9
20260507080749 58 263 3.0 10.0 0.00 0.00 0.00 62 1029.9
20260507080231 58 263 3.0 10.0 0.00 0.00 0.00 62 1029.9
20260507075719 58 263 4.0 10.0 0.00 0.00 0.00 61 1029.8
20260507074619 58 263 3.0 16.0 0.00 0.00 0.00 60 1029.8
20260507074106 58 263 3.0 16.0 0.00 0.00 0.00 60 1029.9
20260507073601 58 263 5.0 16.0 0.00 0.00 0.00 59 1029.9
20260507073042 58 263 4.0 16.0 0.00 0.00 0.00 58 1029.9
20260507072536 58 263 3.0 10.0 0.00 0.00 0.00 58 1029.7
20260507072020 59 263 4.0 11.0 0.00 0.00 0.00 57 1029.7
20260507071521 59 263 5.0 11.0 0.00 0.00 0.00 57 1029.7
20260507071030 59 263 3.0 11.0 0.00 0.00 0.00 58 1029.7
20260507070021 59 263 4.0 15.0 0.00 0.00 0.00 59 1029.7
20260507065522 59 263 4.0 15.0 0.00 0.00 0.00 59 1029.8
20260507065030 59 263 5.0 15.0 0.00 0.00 0.00 58 1029.8
20260507064511 59 263 6.0 15.0 0.00 0.00 0.00 58 1029.8
20260507064014 60 263 5.0 14.0 0.00 0.00 0.00 55 1029.6
20260507063517 60 263 5.0 14.0 0.00 0.00 0.00 54 1029.6
20260507063025 60 263 5.0 14.0 0.00 0.00 0.00 53 1029.6
20260507062526 61 263 4.0 12.0 0.00 0.00 0.00 53 1029.6
20260507062027 61 263 4.0 11.0 0.00 0.00 0.00 53 1029.6
20260507061522 61 263 4.0 11.0 0.00 0.00 0.00 52 1029.6
20260507061016 61 263 2.0 11.0 0.00 0.00 0.00 54 1029.6
20260507055909 60 263 4.0 11.0 0.00 0.00 0.00 54 1029.6
20260507055416 60 263 4.0 11.0 0.00 0.00 0.00 54 1029.7
20260507054858 60 263 2.0 10.0 0.00 0.00 0.00 55 1029.7
20260507054357 60 263 3.0 10.0 0.00 0.00 0.00 56 1029.8
20260507052600 60 263 4.0 12.0 0.00 0.00 0.00 55 1029.7
20260507052059 60 263 6.0 12.0 0.00 0.00 0.00 54 1029.7
20260507051542 60 263 6.0 12.0 0.00 0.00 0.00 54 1029.7
20260507051050 60 263 5.0 11.0 0.00 0.00 0.00 53 1029.6
20260507050557 60 263 4.0 11.0 0.00 0.00 0.00 53 1029.6
20260507050052 60 263 3.0 9.0 0.00 0.00 0.00 56 1029.6
20260507045555 60 263 3.0 11.0 0.00 0.00 0.00 57 1029.9
20260507045044 60 263 3.0 11.0 0.00 0.00 0.00 57 1029.9
20260507044527 60 263 4.0 12.0 0.00 0.00 0.00 57 1029.9
20260507044024 60 263 6.0 12.0 0.00 0.00 0.00 55 1029.8
20260507043512 60 263 6.0 13.0 0.00 0.00 0.00 54 1029.8
20260507043011 60 263 6.0 13.0 0.00 0.00 0.00 54 1029.8
20260507042501 60 263 5.0 13.0 0.00 0.00 0.00 54 1029.9
20260507041319 60 263 5.0 12.0 0.00 0.03 0.00 55 1030.1
20260507040807 60 263 6.0 14.0 0.00 0.03 0.00 54 1030.1
20260507040313 60 263 5.0 14.0 0.00 0.03 0.00 53 1030.1
20260507035753 61 263 5.0 14.0 0.00 0.03 0.00 52 1029.9
20260507035245 61 263 5.0 14.0 0.00 0.03 0.00 51 1029.9
20260507034736 61 263 5.0 14.0 0.00 0.03 0.00 49 1029.9
20260507034245 61 263 6.0 14.0 0.00 0.03 0.00 50 1029.9
20260507033728 61 263 6.0 14.0 0.00 0.03 0.00 52 1029.9
20260507033234 61 263 7.0 14.0 0.00 0.03 0.00 52 1029.9
20260507032735 60 263 6.0 12.0 0.00 0.03 0.00 53 1030.1
20260507032223 60 263 4.0 12.0 0.00 0.03 0.00 54 1030.1
20260507031733 60 263 4.0 12.0 0.00 0.03 0.00 55 1030.1
20260507031234 60 263 5.0 12.0 0.00 0.04 0.00 54 1030.1
20260507030734 60 263 5.0 12.0 0.00 0.05 0.00 54 1030.1
20260507030232 60 263 4.0 12.0 0.00 0.05 0.00 53 1030.1
20260507025726 60 263 3.0 11.0 0.00 0.07 0.00 54 1030.2
20260507025208 60 263 3.0 11.0 0.00 0.09 0.00 58 1030.2
20260507024014 60 263 4.0 11.0 0.00 0.10 0.00 57 1030.4
20260507023456 59 263 3.0 9.0 0.00 0.10 0.00 58 1030.4
20260507023003 60 263 3.0 9.0 0.00 0.10 0.00 57 1030.4
20260507022451 60 263 3.0 10.0 0.00 0.10 0.00 57 1030.6
20260507020707 60 263 4.0 11.0 0.00 0.10 0.00 58 1030.6
20260507020158 59 263 5.0 11.0 0.00 0.10 0.00 58 1030.6
20260507015649 59 263 4.0 9.0 0.00 0.10 0.00 59 1030.7
20260507014527 58 263 5.0 10.0 0.00 0.10 0.00 56 1030.7
20260507014020 58 263 4.0 12.0 0.00 0.10 0.00 56 1030.7
20260507013521 58 263 5.0 12.0 0.00 0.10 0.00 56 1030.7
20260507013019 58 263 6.0 12.0 0.00 0.10 0.00 55 1030.7
20260507012523 59 263 5.0 12.0 0.00 0.10 0.00 54 1030.5
20260507011347 59 263 4.0 9.0 0.00 0.10 0.00 54 1030.2
20260507010837 60 263 3.0 10.0 0.00 0.10 0.00 54 1030.2
20260507010343 60 263 3.0 10.0 0.00 0.10 0.00 54 1030.2
20260507005845 60 263 3.0 10.0 0.00 0.10 0.00 55 1030.2
20260507005348 59 263 4.0 10.0 0.00 0.10 0.00 55 1030.2
20260507004841 59 263 3.0 9.0 0.00 0.10 0.00 56 1030.2
20260507004343 59 263 3.0 9.0 0.00 0.10 0.00 57 1030.2
20260507003828 59 263 3.0 9.0 0.00 0.10 0.00 58 1030.2
20260507003317 58 263 4.0 9.0 0.00 0.10 0.00 60 1030.2
20260507002804 58 263 4.0 9.0 0.00 0.10 0.00 60 1030.2
20260507002311 58 263 3.0 12.0 0.00 0.10 0.00 61 1030.2
20260507001751 57 263 2.0 12.0 0.00 0.10 0.00 63 1030.2
20260507001246 57 263 4.0 12.0 0.00 0.10 0.00 64 1030.2
20260507000750 57 263 4.0 12.0 0.00 0.10 0.00 65 1030.2
20260506235750 56 263 4.0 9.0 0.00 0.10 0.00 68 1030.2
20260506235255 56 263 3.0 9.0 0.00 0.10 0.00 69 1030.2
20260506233443 54 263 0.0 5.0 0.00 0.10 0.00 79 1030.1
20260506232936 53 263 0.0 0.0 0.00 0.10 0.00 81 1030.1
20260506232432 52 263 0.0 0.0 0.00 0.10 0.00 82 1030.1
20260506231914 51 263 0.0 0.0 0.00 0.10 0.00 83 1030.1
20260506230744 51 263 0.0 0.0 0.00 0.10 0.00 83 1030.1
20260506230250 50 263 0.0 0.0 0.00 0.10 0.00 84 1030.1
20260506225737 50 263 0.0 0.0 0.00 0.10 0.00 84 1029.7
20260506225236 50 263 0.0 0.0 0.00 0.10 0.00 83 1029.7
20260506224718 50 263 0.0 0.0 0.00 0.10 0.00 83 1029.7
20260506224213 50 263 0.0 0.0 0.00 0.10 0.00 84 1029.4
20260506223715 50 263 0.0 0.0 0.00 0.10 0.00 84 1029.4
20260506223207 49 263 0.0 0.0 0.00 0.10 0.00 84 1029.4
20260506222650 49 263 0.0 0.0 0.00 0.10 0.00 85 1029.2
20260506222147 49 263 0.0 0.0 0.00 0.10 0.00 84 1029.2
20260506221036 48 263 0.0 0.0 0.00 0.10 0.00 83 1029.1
20260506220539 48 263 0.0 1.0 0.00 0.10 0.00 83 1029.1
20260506220039 48 263 0.0 0.0 0.00 0.10 0.00 82 1029.1
20260506215545 48 263 0.0 0.0 0.00 0.10 0.00 82 1028.9
20260506215045 48 263 0.0 0.0 0.00 0.11 0.00 81 1028.9
20260506214537 48 263 0.0 0.0 0.00 0.11 0.00 80 1028.9
20260506213408 49 263 0.0 0.0 0.00 0.11 0.00 79 1028.7
20260506212849 49 263 0.0 0.0 0.00 0.11 0.00 78 1028.6
20260506212340 49 263 0.0 0.0 0.00 0.12 0.00 77 1028.6
20260506211232 49 263 0.0 0.0 0.00 0.12 0.00 76 1028.4